Back to catalog

ARIANE 44L R/B

AliveHEO
NORAD 26901·ROCKET BODY·🇫🇷 France

Launched Aug 30, 2001 from Guiana Space Centre

Loading…

Next Passes (next 24 hours)

TLE

FreshSource: Space-Track

Epoch: Sep 14, 2026, 10:12 UTC

1 26901U 01039B   26257.42558134  .00003629  00000-0  12972-2 0  9998
2 26901   7.6656 287.2500 6389102 334.3057   4.4793  3.45243976246741

Track ARIANE 44L R/B in real time with AllMySat

Download on the App Store